Flight Track Log - Related Links

Times and Time Zones

All times are in EDT time to prevent confusion due to time zone crossing. See the UPS1219 flight status page for this flight to view local times or setup timezone preferences in your user account.

Time Position Orientation Groundspeed Altitude Reporting Facility
EDT Latitude Longitude Course Direction KTS MPH feet Rate Location/Type
Wed 10:51:48 PM 38.9333 -77.5000 247° West 161 185 2,100  Level Potomac TRACON
Wed 10:52:48 PM 38.9167 -77.5500 246° West 216 249 5,200 3,136 Climbing Potomac TRACON
Wed 10:54:00 PM 38.9106 -77.6483 265° West 232 267 9,000 3,158 Climbing Washington Center
Wed 10:55:01 PM 38.8981 -77.7600 262° West 274 315 12,200 3,818 Climbing Washington Center
Wed 10:56:01 PM 38.8856 -77.8772 262° West 331 381 16,700 4,576 Climbing Washington Center
Wed 10:56:59 PM 38.8747 -77.9967 263° West 338 389 21,200 4,017 Climbing Washington Center
Wed 10:57:59 PM 38.8617 -78.1217 262° West 348 400 24,600 2,826 Climbing Washington Center
Wed 10:59:00 PM 38.8525 -78.2572 265° West 366 421 26,900 1,180 Climbing Washington Center
Wed 11:00:01 PM 38.8472 -78.4036 267° West 390 449 27,000 1,119 Climbing Washington Center
Wed 11:00:58 PM 38.8250 -78.5494 259° West 416 479 29,100 2,441 Climbing Washington Center
Wed 11:01:59 PM 38.8028 -78.6897 259° West 418 481 31,800 3,073 Climbing Washington Center
Wed 11:03:01 PM 38.7803 -78.8247 258° West 412 474 35,400 2,083 Climbing Washington Center
Wed 11:04:00 PM 38.7581 -78.9567 258° West 401 461 36,000 300 Climbing Washington Center
Wed 11:05:01 PM 38.7353 -79.0914 258° West 389 448 36,000  Level Washington Center
Wed 11:05:59 PM 38.7128 -79.2233 258° West 389 448 36,000  Level Washington Center
Wed 11:06:59 PM 38.6936 -79.3633 260° West 400 460 36,000  Level Washington Center
Wed 11:08:00 PM 38.6731 -79.4900 258° West 400 460 36,000  Level Washington Center
Wed 11:09:01 PM 38.6497 -79.6244 258° West 405 466 36,000  Level Washington Center
Wed 11:09:59 PM 38.6264 -79.7639 258° West 405 466 36,000  Level Washington Center
Wed 11:10:59 PM 38.5981 -79.9111 256° West 400 460 36,000  Level Washington Center
Wed 11:11:59 PM 38.5744 -80.0478 258° West 400 460 36,000  Level Washington Center
Wed 11:14:29 PM 38.5661 -80.3628 268° West 391 450 36,000  Level Indianapolis Center
Wed 11:15:30 PM 38.5739 -80.5117 274° West 389 448 36,000  Level Indianapolis Center
Wed 11:16:32 PM 38.5711 -80.6486 269° West 388 447 36,000  Level Indianapolis Center
Wed 11:17:33 PM 38.5456 -80.7833 256° West 389 448 36,000  Level Indianapolis Center
Wed 11:18:34 PM 38.5192 -80.9178 256° West 389 448 36,000  Level Indianapolis Center
Wed 11:19:35 PM 38.4928 -81.0519 256° West 388 447 36,000  Level Indianapolis Center
Wed 11:20:36 PM 38.4664 -81.1864 256° West 388 447 36,000  Level Indianapolis Center
Wed 11:21:38 PM 38.4397 -81.3214 256° West 388 447 36,000  Level Indianapolis Center
Wed 11:22:39 PM 38.4128 -81.4567 256° West 388 447 36,000  Level Indianapolis Center
Wed 11:23:40 PM 38.3803 -81.6186 256° West 388 447 36,000  Level Indianapolis Center
Wed 11:24:41 PM 38.3531 -81.7525 256° West 388 447 36,000  Level Indianapolis Center
Wed 11:25:42 PM 38.3183 -81.8831 251° West 388 447 36,000  Level Indianapolis Center
Wed 11:26:43 PM 38.2819 -82.0117 250° West 387 445 36,000  Level Indianapolis Center
Wed 11:27:44 PM 38.2458 -82.1394 250° West 385 443 36,000  Level Indianapolis Center
Wed 11:28:45 PM 38.2100 -82.2661 250° West 382 440 36,000 -590 Level Indianapolis Center
Wed 11:29:46 PM 38.1742 -82.3922 250° West 381 438 34,800 -1,171 Descending Indianapolis Center
Wed 11:30:48 PM 38.1369 -82.5222 250° West 382 440 33,600 -1,122 Descending Indianapolis Center
Wed 11:31:49 PM 38.1008 -82.6472 250° West 385 443 32,500 -525 Descending Indianapolis Center
Wed 11:33:51 PM 38.0258 -82.9067 248° West 390 449 32,000 -164 Descending Indianapolis Center
Wed 11:34:52 PM 37.9883 -83.0350 250° West 390 449 32,000  Level Indianapolis Center
Wed 11:35:53 PM 37.9447 -83.1839 250° West 388 447 32,000  Level Indianapolis Center
Wed 11:36:54 PM 37.9072 -83.3111 250° West 388 447 32,000  Level Indianapolis Center
Wed 11:37:55 PM 37.8694 -83.4386 249° West 387 445 32,000  Level Indianapolis Center
Wed 11:38:56 PM 37.8317 -83.5653 249° West 387 445 32,000 -1,108 Level Indianapolis Center
Wed 11:44:25 PM 37.6322 -84.2268 249° West 360 414 24,800 -1,489 Descending FlightAware ADS-B
Wed 11:45:51 PM 37.5836 -84.4209 267° West 390 449 21,700 -2,708 Descending FlightAware ADS-B
Wed 11:46:49 PM 37.5967 -84.5500 280° West 385 443 18,300 -3,580 Descending FlightAware ADS-B
Wed 11:47:50 PM 37.6157 -84.6816 280° West 366 421 14,600 -3,143 Descending FlightAware ADS-B
Wed 11:48:34 PM 37.6211 -84.7189 280° West 355 409 12,800 -1,966 Descending FlightAware ADS-B
Wed 11:49:49 PM 37.6478 -84.9064 282° West 330 380 10,700 -1,314 Descending FlightAware ADS-B
Wed 11:50:51 PM 37.6965 -85.0120 312° West 270 311 9,800 -1,082 Descending FlightAware ADS-B
Wed 11:51:51 PM 37.7455 -85.0793 313° West 260 299 8,500 -1,388 Descending FlightAware ADS-B
Wed 11:52:52 PM 37.7951 -85.1473 313° West 263 303 7,000 -1,438 Descending FlightAware ADS-B
Wed 11:53:52 PM 37.8313 -85.2292 293° West 268 308 5,600 -1,100 Descending FlightAware ADS-B
Wed 11:54:52 PM 37.8584 -85.3113 292° West 254 292 4,800 -744 Descending FlightAware ADS-B
Wed 11:55:53 PM 37.8860 -85.3947 293° West 249 287 4,100 -694 Descending FlightAware ADS-B
Wed 11:56:53 PM 37.9127 -85.4754 293° West 247 284 3,400 -650 Descending FlightAware ADS-B
Wed 11:57:53 PM 37.9557 -85.5407 311° West 243 280 2,800 -650 Descending FlightAware ADS-B
Wed 11:58:53 PM 37.9991 -85.6051 310° West 234 269 2,100 -300 Descending FlightAware ADS-B
Wed 11:59:53 PM 38.0362 -85.6580 312° West 175 201 2,200 250 Climbing FlightAware ADS-B
Thu 12:00:05 AM 38.0500 -85.6667 208° Southwest 173 199 2,400 -102 Climbing Louisville TRACON
Thu 12:00:52 AM 38.0731 -85.6923 343° North 161 185 2,100 -653 Descending FlightAware ADS-B
Thu 12:01:46 AM 38.1100 -85.7050 345° North 145 167 1,300 -987 Descending FlightAware ADS-B
Thu 12:02:11 AM 38.1262 -85.7105 345° North 146 168 800 -367 Descending FlightAware ADS-B
Thu 12:02:35 AM 38.1333 -85.7167 335° Northwest 143 165 1,000 500 Climbing Louisville TRACON
Thu 12:04:00 AM 38.1667 -85.7333 208° Southwest  Level FlightAware Approximate
Thu 12:05:00 AM 38.1667 -85.7333 208° Southwest  Level FlightAware Approximate
Thu 12:11:00 AM 38.1741 -85.7365 208° Southwest  Level Estimated

Login

Don't have an account? Register now (free) for customized features, flight alerts, and more!